FDX135 KLAX-KJFK

Flight info

Callsign FDX135
Flight time N/A
Altitude 35000
Route DOTSS2 CLEEE PKE J134 DRK KA33Q KA36S KA39U KA42W GCK SPI WWODD RINTE KLYNE Q29 WWSHR JHW Q476 WLKES PUCKY1
Aircraft MD11/H-SDE1E2E3FGHIJ2J3J4J5M1RWXY/LB1D1

Departure

Time 2026-05-01 13:54
Airport Los Angeles International Airport (KLAX)

Arrival

Time N/A
Airport John F. Kennedy International Airport (KJFK)
Time Latitude Longitude Altitude Speed Heading
2026-05-01 13:39 33.93403 -118.38836 100 ft 0 kts 173°
2026-05-01 13:46 33.93420 -118.38839 100 ft 3 kts 173°
2026-05-01 13:47 33.93438 -118.38841 99 ft 3 kts 173°
2026-05-01 13:47 33.93457 -118.38844 99 ft 3 kts 173°
2026-05-01 13:47 33.93475 -118.38846 99 ft 3 kts 173°
2026-05-01 13:47 33.93494 -118.38849 100 ft 3 kts 173°
2026-05-01 13:48 33.93506 -118.38851 100 ft 3 kts 173°
2026-05-01 13:48 33.93524 -118.38853 100 ft 3 kts 173°
2026-05-01 13:48 33.93542 -118.38856 100 ft 3 kts 173°
2026-05-01 13:48 33.93551 -118.38857 100 ft 0 kts 173°
2026-05-01 13:50 33.93550 -118.38856 101 ft 0 kts 167°
2026-05-01 13:50 33.93547 -118.38851 101 ft 1 kts 141°
2026-05-01 13:51 33.93546 -118.38844 100 ft 1 kts 110°
2026-05-01 13:51 33.93550 -118.38830 103 ft 4 kts 72°
2026-05-01 13:51 33.93564 -118.38762 103 ft 11 kts 83°
2026-05-01 13:51 33.93574 -118.38664 103 ft 12 kts 83°
2026-05-01 13:52 33.93585 -118.38555 101 ft 14 kts 83°
2026-05-01 13:52 33.93597 -118.38433 103 ft 16 kts 83°
2026-05-01 13:52 33.93628 -118.38311 102 ft 14 kts 46°
2026-05-01 13:52 33.93697 -118.38302 105 ft 8 kts 336°
2026-05-01 13:53 33.93725 -118.38343 104 ft 6 kts 289°
2026-05-01 13:53 33.93671 -118.38905 102 ft 105 kts 263°
2026-05-01 13:53 33.93555 -118.40087 108 ft 174 kts 262°
2026-05-01 13:54 33.93373 -118.41642 425 ft 196 kts 260°
2026-05-01 13:54 33.93133 -118.43253 1036 ft 195 kts 259°
2026-05-01 13:54 33.92908 -118.44859 1716 ft 195 kts 259°
2026-05-01 13:54 33.92585 -118.46465 2398 ft 197 kts 242°
2026-05-01 13:55 33.91807 -118.47744 3274 ft 192 kts 230°
2026-05-01 13:55 33.90905 -118.48938 3960 ft 194 kts 231°
2026-05-01 13:55 33.90057 -118.50182 4638 ft 195 kts 234°
2026-05-01 13:55 33.89208 -118.51471 5276 ft 197 kts 234°
2026-05-01 13:56 33.88353 -118.52769 5916 ft 198 kts 233°
2026-05-01 13:56 33.87478 -118.54062 6447 ft 205 kts 229°
2026-05-01 13:56 33.86325 -118.55225 6574 ft 232 kts 210°
2026-05-01 13:56 33.84706 -118.55865 6716 ft 261 kts 185°
2026-05-01 13:57 33.82808 -118.55702 6936 ft 284 kts 170°
2026-05-01 13:57 33.80886 -118.55206 7627 ft 287 kts 167°
2026-05-01 13:57 33.78934 -118.54649 8410 ft 289 kts 167°
2026-05-01 13:57 33.76978 -118.54089 9225 ft 290 kts 167°
2026-05-01 13:58 33.75011 -118.53534 10002 ft 292 kts 166°
2026-05-01 13:58 33.72983 -118.52887 10271 ft 313 kts 160°
2026-05-01 13:58 33.70951 -118.51717 10407 ft 336 kts 145°
2026-05-01 13:58 33.69192 -118.49748 10558 ft 357 kts 125°
2026-05-01 13:59 33.68003 -118.47100 11082 ft 365 kts 111°
2026-05-01 13:59 33.67124 -118.44215 11710 ft 370 kts 107°
2026-05-01 13:59 33.66326 -118.41252 12380 ft 376 kts 106°
2026-05-01 13:59 33.65522 -118.38246 13036 ft 381 kts 106°
2026-05-01 14:00 33.64737 -118.35182 13623 ft 386 kts 100°
2026-05-01 14:00 33.64376 -118.31990 14219 ft 388 kts 91°
2026-05-01 14:00 33.64304 -118.28739 14797 ft 391 kts 87°
2026-05-01 14:00 33.64334 -118.25457 15373 ft 395 kts 86°
2026-05-01 14:01 33.64386 -118.22145 15956 ft 400 kts 86°
2026-05-01 14:01 33.64429 -118.18786 16535 ft 404 kts 86°
2026-05-01 14:01 33.64457 -118.15394 17105 ft 409 kts 86°
2026-05-01 14:01 33.64472 -118.12004 17677 ft 413 kts 87°
2026-05-01 14:02 33.64479 -118.08531 18242 ft 418 kts 87°
2026-05-01 14:02 33.64481 -118.05017 18727 ft 423 kts 87°
2026-05-01 14:02 33.64479 -118.01473 19196 ft 427 kts 87°
2026-05-01 14:02 33.64476 -117.97891 19670 ft 431 kts 87°
2026-05-01 14:03 33.64471 -117.94274 20140 ft 435 kts 87°
2026-05-01 14:03 33.64465 -117.90613 20593 ft 440 kts 87°
2026-05-01 14:03 33.64458 -117.86931 21063 ft 444 kts 87°
2026-05-01 14:03 33.64450 -117.83210 21529 ft 448 kts 87°
2026-05-01 14:04 33.64572 -117.79467 21961 ft 449 kts 81°
2026-05-01 14:04 33.65041 -117.75805 22411 ft 451 kts 76°
2026-05-01 14:04 33.65712 -117.72111 22862 ft 454 kts 73°
2026-05-01 14:04 33.66459 -117.68416 23300 ft 458 kts 73°
2026-05-01 14:05 33.67225 -117.64689 23727 ft 462 kts 73°
2026-05-01 14:05 33.67983 -117.60933 24112 ft 465 kts 73°
2026-05-01 14:05 33.68732 -117.57133 24488 ft 468 kts 73°
2026-05-01 14:05 33.69472 -117.53307 24860 ft 472 kts 73°
2026-05-01 14:06 33.70206 -117.49454 25227 ft 475 kts 73°
2026-05-01 14:06 33.70943 -117.45564 25582 ft 479 kts 73°
2026-05-01 14:06 33.71683 -117.41641 25938 ft 482 kts 73°
2026-05-01 14:06 33.72425 -117.37703 26300 ft 485 kts 73°
2026-05-01 14:07 33.73171 -117.33733 26636 ft 489 kts 73°
2026-05-01 14:07 33.73921 -117.29740 26971 ft 492 kts 73°
2026-05-01 14:07 33.74671 -117.25716 27305 ft 495 kts 74°
2026-05-01 14:08 33.75272 -117.17379 27939 ft 507 kts 87°
2026-05-01 14:08 33.75183 -117.13123 28262 ft 512 kts 89°
2026-05-01 14:08 33.75024 -117.08886 28554 ft 515 kts 89°
2026-05-01 14:08 33.74858 -117.04576 28940 ft 518 kts 89°
2026-05-01 14:09 33.74713 -117.00238 29236 ft 521 kts 89°
2026-05-01 14:09 33.74590 -116.95866 29546 ft 524 kts 88°
2026-05-01 14:09 33.74482 -116.91473 29865 ft 527 kts 88°
2026-05-01 14:09 33.74383 -116.87050 30169 ft 530 kts 88°
2026-05-01 14:10 33.74287 -116.82614 30451 ft 532 kts 88°
2026-05-01 14:10 33.74190 -116.78163 30812 ft 533 kts 88°
2026-05-01 14:10 33.74091 -116.73703 31175 ft 533 kts 88°
2026-05-01 14:10 33.73989 -116.69258 31542 ft 532 kts 88°
2026-05-01 14:11 33.73886 -116.64812 31911 ft 532 kts 88°
2026-05-01 14:11 33.73674 -116.55986 32534 ft 532 kts 89°
2026-05-01 14:11 33.73566 -116.51531 32840 ft 533 kts 89°
2026-05-01 14:12 33.73455 -116.47082 33149 ft 533 kts 89°
2026-05-01 14:12 33.73343 -116.42631 33441 ft 533 kts 89°
2026-05-01 14:12 33.73229 -116.38183 33774 ft 533 kts 89°
2026-05-01 14:12 33.73113 -116.33729 34055 ft 533 kts 89°
2026-05-01 14:13 33.72996 -116.29275 34311 ft 533 kts 89°
2026-05-01 14:13 33.72918 -116.26324 34480 ft 533 kts 89°
2026-05-01 14:13 33.72758 -116.20366 34784 ft 534 kts 89°
2026-05-01 14:13 33.72636 -116.15894 34860 ft 538 kts 89°
2026-05-01 14:14 33.72648 -116.06919 34883 ft 532 kts 79°
2026-05-01 14:14 33.74439 -115.98461 34885 ft 522 kts 65°
2026-05-01 14:15 33.77027 -115.90297 34894 ft 523 kts 64°
2026-05-01 14:15 33.79510 -115.82043 34887 ft 525 kts 66°
2026-05-01 14:16 33.81838 -115.73705 34892 ft 526 kts 67°
2026-05-01 14:16 33.84116 -115.65345 34887 ft 526 kts 67°
2026-05-01 14:17 33.86399 -115.56964 34891 ft 527 kts 66°
2026-05-01 14:17 33.88674 -115.48622 34885 ft 527 kts 66°
2026-05-01 14:18 33.90957 -115.40234 34885 ft 527 kts 66°
2026-05-01 14:18 33.92850 -115.33255 34875 ft 527 kts 66°
2026-05-01 14:19 33.95503 -115.23440 34859 ft 527 kts 66°
2026-05-01 14:19 33.97770 -115.15034 34872 ft 527 kts 66°
2026-05-01 14:20 34.01113 -115.02462 34864 ft 527 kts 67°
2026-05-01 14:21 34.03350 -114.94045 34861 ft 527 kts 66°
2026-05-01 14:21 34.05590 -114.85636 34850 ft 527 kts 66°
2026-05-01 14:22 34.08949 -114.72999 34856 ft 527 kts 66°
2026-05-01 14:22 34.11218 -114.64595 34856 ft 526 kts 66°
2026-05-01 14:23 34.13576 -114.56225 34847 ft 526 kts 65°
2026-05-01 14:23 34.15937 -114.47914 34831 ft 526 kts 65°
2026-05-01 14:24 34.18303 -114.39540 34842 ft 526 kts 65°
2026-05-01 14:24 34.20658 -114.31156 34832 ft 526 kts 65°
2026-05-01 14:25 34.22990 -114.22825 34831 ft 526 kts 65°
2026-05-01 14:25 34.25331 -114.14444 34832 ft 526 kts 65°
2026-05-01 14:26 34.28798 -114.01892 35081 ft 527 kts 66°
2026-05-01 14:26 34.29969 -113.97627 35275 ft 527 kts 66°
2026-05-01 14:27 34.31109 -113.93477 35483 ft 527 kts 65°
2026-05-01 14:27 34.32279 -113.89219 35738 ft 526 kts 65°
2026-05-01 14:27 34.33418 -113.85073 35964 ft 525 kts 65°
2026-05-01 14:28 34.35723 -113.76672 36339 ft 525 kts 65°
2026-05-01 14:28 34.36872 -113.72477 36528 ft 525 kts 65°
2026-05-01 14:28 34.38020 -113.68279 36732 ft 524 kts 65°
2026-05-01 14:28 34.39166 -113.64082 36811 ft 526 kts 65°
2026-05-01 14:29 34.41457 -113.55664 36844 ft 526 kts 66°
2026-05-01 14:30 34.46010 -113.38862 36857 ft 525 kts 66°
2026-05-01 14:31 34.49398 -113.26295 36856 ft 525 kts 66°
2026-05-01 14:31 34.51662 -113.17864 36864 ft 525 kts 66°
2026-05-01 14:32 34.53908 -113.09408 36888 ft 525 kts 66°
2026-05-01 14:32 34.56127 -113.00995 36876 ft 526 kts 66°
2026-05-01 14:33 34.58371 -112.92531 36883 ft 526 kts 66°
2026-05-01 14:33 34.60601 -112.84124 36885 ft 526 kts 66°
2026-05-01 14:34 34.62840 -112.75658 36911 ft 527 kts 66°
2026-05-01 14:34 34.65080 -112.67160 36904 ft 527 kts 66°
2026-05-01 14:35 34.66934 -112.60099 36901 ft 527 kts 66°
2026-05-01 14:35 34.69762 -112.50358 36903 ft 523 kts 62°
2026-05-01 14:35 34.71116 -112.46255 37076 ft 523 kts 61°
2026-05-01 14:36 34.72046 -112.43495 37074 ft 523 kts 61°
2026-05-01 14:36 34.74799 -112.35351 37062 ft 524 kts 61°
2026-05-01 14:37 34.77537 -112.27139 37022 ft 524 kts 62°
2026-05-01 14:37 34.80257 -112.18892 36978 ft 524 kts 62°
2026-05-01 14:38 34.82973 -112.10629 36975 ft 525 kts 62°
2026-05-01 14:38 34.85681 -112.02373 37008 ft 525 kts 62°
2026-05-01 14:39 34.88366 -111.94163 37039 ft 525 kts 62°
2026-05-01 14:39 34.91066 -111.85886 37062 ft 525 kts 62°
2026-05-01 14:40 34.93759 -111.77609 37076 ft 525 kts 62°
2026-05-01 14:40 34.96448 -111.69322 37039 ft 525 kts 62°
2026-05-01 14:41 34.99114 -111.61064 37081 ft 526 kts 63°
2026-05-01 14:41 35.01771 -111.52740 36940 ft 526 kts 63°
2026-05-01 14:42 35.04433 -111.44424 36954 ft 525 kts 63°
2026-05-01 14:42 35.07095 -111.36123 36957 ft 525 kts 63°
2026-05-01 14:43 35.09753 -111.27819 36958 ft 525 kts 63°
2026-05-01 14:43 35.12408 -111.19501 36955 ft 525 kts 63°
2026-05-01 14:44 35.15041 -111.11230 36975 ft 525 kts 63°
2026-05-01 14:44 35.19001 -110.98738 36957 ft 525 kts 63°
2026-05-01 14:45 35.22954 -110.86219 36957 ft 525 kts 63°
2026-05-01 14:46 35.25566 -110.77917 36964 ft 525 kts 64°
2026-05-01 14:46 35.29472 -110.65431 36958 ft 525 kts 64°
2026-05-01 14:47 35.32059 -110.57058 36954 ft 525 kts 64°
2026-05-01 14:48 35.35947 -110.44526 36961 ft 524 kts 65°
2026-05-01 14:48 35.39817 -110.32040 36950 ft 522 kts 65°
2026-05-01 14:49 35.44944 -110.15422 36949 ft 522 kts 65°
2026-05-01 14:50 35.50042 -109.98797 36952 ft 521 kts 65°
2026-05-01 14:51 35.53810 -109.86259 36952 ft 522 kts 68°
2026-05-01 14:52 35.57103 -109.73492 36961 ft 522 kts 70°
2026-05-01 14:53 35.60319 -109.60756 36962 ft 522 kts 70°
2026-05-01 14:53 35.62476 -109.52288 36955 ft 518 kts 70°
2026-05-01 14:54 35.64636 -109.43799 36993 ft 520 kts 70°
2026-05-01 14:54 35.66788 -109.35308 37034 ft 520 kts 70°
2026-05-01 14:55 35.68934 -109.26810 37077 ft 519 kts 70°
2026-05-01 14:55 35.71058 -109.18369 37112 ft 519 kts 70°
2026-05-01 14:56 35.73189 -109.09870 37128 ft 520 kts 70°
2026-05-01 14:56 35.75320 -109.01347 37117 ft 520 kts 70°
2026-05-01 14:57 35.77445 -108.92817 37076 ft 520 kts 70°
2026-05-01 14:57 35.80573 -108.80055 37004 ft 520 kts 71°
2026-05-01 14:58 35.82672 -108.71505 36938 ft 521 kts 71°
2026-05-01 14:58 35.84776 -108.62955 36936 ft 521 kts 71°
2026-05-01 14:59 35.86864 -108.54446 36947 ft 521 kts 71°
2026-05-01 14:59 35.88961 -108.45874 36956 ft 521 kts 71°
2026-05-01 15:00 35.92093 -108.33011 36968 ft 522 kts 72°
2026-05-01 15:01 35.94172 -108.24434 36967 ft 522 kts 72°
2026-05-01 15:01 35.96244 -108.15852 36972 ft 522 kts 72°
2026-05-01 15:02 35.98299 -108.07316 36970 ft 522 kts 72°
2026-05-01 15:02 36.00377 -107.98723 36975 ft 521 kts 71°
2026-05-01 15:03 36.02552 -107.90158 36973 ft 521 kts 71°
2026-05-01 15:03 36.04768 -107.81623 36984 ft 521 kts 70°
2026-05-01 15:04 36.06981 -107.73087 36997 ft 521 kts 71°
2026-05-01 15:04 36.09170 -107.64595 36994 ft 522 kts 71°
2026-05-01 15:05 36.11365 -107.56037 37000 ft 522 kts 71°
2026-05-01 15:05 36.13555 -107.47470 37000 ft 522 kts 71°
2026-05-01 15:06 36.15741 -107.38892 37009 ft 522 kts 71°
2026-05-01 15:06 36.17924 -107.30298 37004 ft 524 kts 71°
2026-05-01 15:07 36.20087 -107.21750 37002 ft 523 kts 71°
2026-05-01 15:07 36.22258 -107.13143 36997 ft 523 kts 71°
2026-05-01 15:08 36.24425 -107.04523 37011 ft 524 kts 72°
2026-05-01 15:08 36.26566 -106.95877 36999 ft 524 kts 72°
2026-05-01 15:09 36.28691 -106.87276 37002 ft 525 kts 72°
2026-05-01 15:09 36.30840 -106.78617 37002 ft 524 kts 72°
2026-05-01 15:10 36.32988 -106.69960 37010 ft 525 kts 72°
2026-05-01 15:10 36.36187 -106.57010 37015 ft 526 kts 72°
2026-05-01 15:11 36.39389 -106.43972 37023 ft 526 kts 72°
2026-05-01 15:12 36.41519 -106.35261 37022 ft 526 kts 72°
2026-05-01 15:12 36.44699 -106.22196 37026 ft 528 kts 72°
2026-05-01 15:14 36.49965 -106.00389 37040 ft 528 kts 72°
2026-05-01 15:14 36.53299 -105.87273 37043 ft 530 kts 71°
2026-05-01 15:15 36.57821 -105.69853 37057 ft 530 kts 71°
2026-05-01 15:16 36.62301 -105.52400 37068 ft 530 kts 71°
2026-05-01 15:18 36.67879 -105.30496 37114 ft 530 kts 71°
2026-05-01 15:19 36.72322 -105.12917 37130 ft 532 kts 72°
2026-05-01 15:19 36.75616 -104.99764 37137 ft 531 kts 72°
2026-05-01 15:20 36.78884 -104.86525 37168 ft 532 kts 72°
2026-05-01 15:21 36.81074 -104.77696 37184 ft 532 kts 72°
2026-05-01 15:21 36.83253 -104.68912 37197 ft 532 kts 72°
2026-05-01 15:22 36.86523 -104.55666 37206 ft 532 kts 72°
2026-05-01 15:22 36.88331 -104.48305 37208 ft 532 kts 72°
2026-05-01 15:23 36.90497 -104.39459 37200 ft 532 kts 72°
2026-05-01 15:23 36.93008 -104.29166 37189 ft 532 kts 72°
2026-05-01 15:24 36.94810 -104.21755 37177 ft 532 kts 72°
2026-05-01 15:24 36.96957 -104.12890 37182 ft 532 kts 72°
2026-05-01 15:25 36.99099 -104.04016 37179 ft 533 kts 72°
2026-05-01 15:25 37.01377 -103.95258 37179 ft 532 kts 69°
2026-05-01 15:26 37.03941 -103.86561 37178 ft 532 kts 68°
2026-05-01 15:26 37.06548 -103.77880 37178 ft 533 kts 68°
2026-05-01 15:27 37.09127 -103.69186 37178 ft 533 kts 68°
2026-05-01 15:28 37.12966 -103.56099 37179 ft 533 kts 69°
2026-05-01 15:28 37.15511 -103.47383 37181 ft 533 kts 69°
2026-05-01 15:29 37.19310 -103.34331 37182 ft 534 kts 69°
2026-05-01 15:30 37.23974 -103.18216 37183 ft 535 kts 69°
2026-05-01 15:31 37.31929 -102.90361 37172 ft 536 kts 69°
2026-05-01 15:32 37.36928 -102.72767 37177 ft 537 kts 69°
2026-05-01 15:34 37.44453 -102.46127 37172 ft 539 kts 69°